Location: Unspecified
(0.0000°N, 0.0000°E)
Time: 11:39:27
(UTC+00:00)

LightSail 2 - Pass Details

Date: 29 March 2020
Orbit: 693 x 726 km, 24.0° (Epoch: 02 April)

Event Time Altitude Azimuth Distance (km) Brightness Sun altitude
Exits shadow 03:55:35 38° 98° (E) 1,055 6.4 -32.2°
Drops below altitude 10° 03:58:53 10° 77° (ENE) 2,142 8.5 -31.4°
Sets 04:01:21 0° 73° (ENE) 3,062 9.5 -30.8°
